Wind_Speed
12 12 11 12 14 17 18 18 19 19 20 16 12 11 10 10 10 7 4 5 5 4 4 4 4 5 7 9 9 9 9 10 10 10 11 11 11 10 9 8 8 6 5 4 3 2 1 1 1 1 1 2 2 4 5 6 7 7 7 8 9 11 12 12 12 12 11 9 8 8 8 8 8 10 12 14 15 16 16 16 17 18 17 17 16 15
13 14 14 15 17 19 20 21 20 20 21 16 12 12 11 12 10 7 4 4 5 5 4 3 3 4 5 8 9 9 8 7 8 9 9 9 9 9 9 9 7 6 6 5 4 3 2 2 2 1 1 1 2 3 4 6 6 7 7 7 9 11 13 14 13 12 12 10 9 8 8 8 9 9 11 13 15 16 16 16 17 16 16 15 14 14
17 18 19 20 21 21 22 21 21 22 22 20 17 13 12 11 9 7 4 3 5 6 5 3 1 2 3 6 6 7 6 5 5 6 7 8 8 8 9 10 7 6 6 6 6 4 3 3 2 1 1 1 2 4 5 5 6 7 7 7 8 10 13 15 15 14 12 11 10 9 9 9 10 11 11 12 13 14 15 15 15 15 14 13 13 13
19 21 22 23 23 22 22 22 23 24 22 19 17 13 12 10 8 7 6 2 4 6 5 4 2 2 1 3 3 4 4 3 2 4 6 7 7 8 9 10 7 6 6 7 8 7 5 3 2 2 2 1 1 3 5 5 5 6 7 8 8 9 12 14 15 15 13 12 11 11 10 10 10 11 12 12 13 13 13 13 14 13 12 12 12 13
18 21 22 22 20 20 21 21 21 21 15 15 15 13 13 12 9 9 7 3 3 5 5 5 5 4 3 2 1 1 1 2 3 4 6 7 8 9 10 10 9 9 9 9 9 10 8 5 3 3 3 2 1 2 4 5 5 5 6 8 8 8 10 13 15 16 15 14 13 12 12 11 11 11 11 12 12 13 12 12 11 12 11 11 11 12
12 13 14 14 13 14 17 15 17 16 14 17 16 14 15 16 14 12 8 3 3 7 6 7 7 6 5 3 1 2 3 3 5 6 6 8 9 10 11 11 11 10 12 11 8 9 11 7 5 4 3 2 2 1 3 4 5 5 6 7 8 8 8 10 13 15 15 14 14 14 13 11 11 12 12 12 12 12 11 11 10 11 12 12 12 12
6 4 4 5 8 13 16 16 17 16 19 20 17 18 18 17 16 12 9 6 7 10 10 9 9 7 5 3 2 3 4 4 5 6 6 7 10 12 12 12 13 12 12 12 10 11 12 10 7 6 4 3 2 2 2 3 5 5 5 6 7 8 8 8 10 12 14 14 14 14 14 12 11 11 12 12 12 12 11 10 10 11 12 13 13 12
3 2 4 4 6 10 13 13 14 17 23 22 21 22 20 16 15 12 10 10 12 14 13 12 11 8 6 4 4 5 5 5 6 7 7 8 10 14 16 14 15 15 14 14 13 13 13 11 10 10 5 4 4 3 2 2 3 5 5 5 6 8 8 8 9 10 12 13 13 13 14 13 12 11 10 10 11 11 11 10 10 12 12 13 13 12
2 4 7 8 7 6 6 7 10 21 28 26 26 24 17 14 15 14 14 15 16 17 14 11 11 9 7 5 6 6 5 5 5 7 8 8 8 10 16 17 16 17 16 16 16 14 13 12 12 13 9 6 5 4 4 3 3 4 5 5 6 7 8 9 9 10 11 12 12 12 13 13 12 11 10 9 10 11 11 11 11 12 13 13 12 11
5 8 5 4 6 4 3 3 9 23 29 29 29 25 16 11 11 12 15 15 14 14 11 10 11 11 10 9 8 7 6 6 5 6 7 7 8 7 12 17 18 17 17 18 18 15 14 13 13 14 13 10 7 6 6 4 4 3 5 5 6 7 7 9 10 10 11 12 12 12 13 13 12 12 11 10 10 11 12 12 12 12 12 12 11 11
9 10 7 2 1 3 4 2 5 18 26 26 28 26 20 16 11 8 10 14 14 11 10 12 16 17 17 15 12 9 7 7 6 6 6 6 8 8 8 12 15 17 19 21 19 16 15 15 14 14 15 14 9 8 7 6 6 5 5 6 6 7 7 8 9 10 11 12 13 13 13 13 13 13 12 11 11 11 12 12 12 12 12 11 10 10
10 7 5 4 7 7 4 4 3 12 20 20 22 24 23 22 20 14 13 16 12 5 4 10 13 15 17 18 18 14 9 8 7 7 7 6 7 8 7 8 10 12 18 22 20 17 16 16 15 14 16 16 12 10 10 9 8 7 7 7 7 7 7 7 8 9 9 10 11 12 13 13 13 13 12 12 12 11 11 11 12 12 12 11 10 10
14 8 6 7 9 6 6 8 3 9 16 16 15 18 21 24 25 21 19 17 10 6 8 10 10 11 12 16 19 17 14 12 11 10 10 10 10 9 9 10 9 9 14 21 22 20 19 18 16 15 16 15 14 12 12 11 10 10 9 8 8 8 8 8 8 8 9 9 9 11 12 12 12 12 11 12 11 11 11 11 11 11 11 11 10 9
14 10 8 7 5 5 3 8 6 9 14 15 15 16 16 18 20 20 19 16 10 9 8 7 9 11 11 13 15 16 16 16 15 14 12 12 12 12 12 12 12 11 13 18 23 24 23 20 18 17 17 16 15 14 13 13 12 12 11 10 9 9 8 8 8 8 8 9 8 9 10 11 11 11 10 10 10 11 11 11 11 11 10 10 10 9
8 7 6 3 5 7 2 6 9 11 14 19 20 20 17 13 15 16 16 13 10 11 10 9 12 13 13 14 13 13 15 16 15 15 13 13 14 14 14 14 15 15 15 18 21 23 24 22 19 19 18 17 16 15 15 15 14 14 13 11 11 10 10 9 9 10 9 9 9 9 9 10 11 11 10 9 9 9 10 10 10 10 10 10 9 9
3 5 6 3 6 5 2 6 13 15 16 19 20 19 17 13 12 11 11 13 13 14 14 13 13 14 15 17 16 13 12 13 14 15 14 13 14 14 14 14 15 15 15 18 18 18 21 23 21 20 19 17 17 17 17 16 16 16 14 13 12 12 11 11 11 12 12 11 11 10 10 10 10 11 11 10 9 9 9 9 9 10 10 10 10 9
4 3 4 4 3 3 3 7 17 16 14 17 20 20 17 14 13 11 11 14 16 17 17 16 15 15 15 16 15 12 11 12 14 15 15 12 11 12 12 11 12 13 15 15 14 14 19 23 22 22 21 19 18 18 18 17 17 16 15 13 13 13 13 13 12 12 12 13 13 13 12 11 11 11 12 11 11 10 9 9 9 10 10 10 10 9
7 5 2 2 4 2 1 9 15 10 7 11 17 19 17 17 18 16 13 16 19 20 20 19 18 18 18 16 14 13 13 14 15 15 15 13 11 11 12 13 13 13 13 13 11 12 17 22 23 23 22 20 20 19 18 18 17 16 16 16 16 15 15 14 12 11 11 11 12 12 13 13 12 12 12 12 12 11 11 10 10 10 10 10 10 10
12 9 6 6 5 5 5 10 15 11 8 12 14 16 17 18 19 17 16 18 21 22 22 21 20 20 19 17 16 15 14 14 16 16 16 15 13 11 12 14 15 14 14 14 13 12 14 20 24 25 24 22 22 21 19 19 18 18 18 18 18 17 16 15 14 13 12 11 11 12 12 13 13 13 12 12 12 12 12 11 11 10 10 10 10 10
16 14 13 11 7 9 10 11 18 15 12 15 14 16 21 22 21 19 17 19 21 24 24 24 23 22 19 17 16 15 13 12 13 15 15 15 15 13 11 12 15 16 16 17 16 13 13 17 22 25 26 25 24 22 22 23 21 19 19 20 20 20 19 17 16 15 15 14 13 13 13 13 13 13 13 12 12 12 12 11 11 11 10 10 10 10
21 20 20 16 11 9 11 16 22 16 14 18 17 17 24 25 24 22 20 19 19 22 24 24 24 23 22 19 17 15 13 11 11 12 12 13 14 14 12 11 12 15 18 20 19 16 15 16 18 21 24 26 25 22 22 25 23 20 20 21 22 22 21 20 19 18 17 16 15 15 14 14 14 13 12 12 12 12 12 12 12 11 10 10 10 10
23 24 23 20 17 12 11 17 21 17 16 22 21 20 23 24 22 23 22 20 19 22 25 25 24 24 24 22 20 17 14 12 10 10 10 11 12 13 12 11 11 13 17 20 22 20 17 16 17 18 21 24 25 23 21 23 24 21 20 21 22 23 23 23 23 21 19 18 17 16 15 15 15 14 14 13 14 14 14 14 14 13 12 12 12 11
24 26 26 23 21 17 14 15 17 16 19 23 24 22 21 19 18 21 23 22 21 23 26 27 25 23 22 23 23 21 17 14 12 11 12 12 11 11 11 11 11 13 16 19 22 20 16 15 17 18 21 23 26 25 21 21 24 24 22 22 23 24 25 25 26 25 22 20 20 19 17 16 17 17 16 16 15 15 15 15 15 14 14 14 13 13
21 26 28 28 25 21 17 17 15 15 17 20 22 23 21 19 19 21 24 24 23 24 26 27 27 24 21 21 21 20 18 15 14 14 14 13 11 11 10 10 10 12 15 18 20 19 16 15 17 18 20 22 24 25 23 21 24 25 25 24 25 27 27 25 25 26 24 23 22 21 19 18 18 18 18 17 16 15 15 15 15 15 15 15 15 14
20 23 27 30 28 23 21 21 18 16 16 17 19 22 23 22 21 22 24 25 26 27 27 27 27 25 23 21 20 19 17 15 14 14 14 13 13 13 13 13 13 12 14 17 19 19 16 15 17 19 20 21 22 24 26 25 25 26 27 26 26 27 28 25 23 25 26 24 23 22 21 20 19 18 18 18 17 16 15 16 16 16 16 16 16 15
20 23 26 28 28 26 24 24 22 19 18 17 18 22 25 25 24 23 22 23 26 29 30 30 29 26 23 21 21 21 18 16 15 15 15 14 13 13 13 14 14 14 14 16 18 20 18 16 17 19 21 23 23 25 28 29 27 26 27 28 28 27 27 27 25 25 25 25 24 23 23 23 22 20 19 19 19 18 17 17 17 18 18 18 18 17
20 23 26 26 25 26 28 27 25 23 21 18 17 20 24 25 25 24 22 21 22 24 26 29 30 29 27 25 23 21 19 17 16 16 16 16 14 12 12 13 14 15 15 15 17 19 20 19 19 20 21 22 22 23 25 27 27 27 27 28 29 29 31 31 29 27 26 26 25 25 25 25 25 23 22 22 22 21 20 19 19 19 19 20 19 18
18 21 23 23 22 25 30 31 29 26 23 20 18 19 21 22 24 23 22 22 22 22 21 22 23 25 27 27 24 21 19 17 16 16 17 17 16 14 14 14 15 16 15 15 16 18 20 20 20 21 22 22 22 22 22 24 25 25 26 27 28 30 33 34 31 29 28 27 26 26 27 27 27 26 25 25 25 24 23 22 22 21 21 21 20 19
18 18 20 21 21 23 29 34 32 29 27 25 23 24 24 24 24 24 24 25 25 24 22 19 17 17 20 23 23 21 19 18 17 17 17 17 16 16 15 15 16 17 18 18 17 18 19 20 20 20 21 22 24 24 25 26 26 25 25 26 26 26 29 33 34 33 31 30 27 28 29 28 28 28 28 27 26 26 25 25 25 24 23 23 22 21
20 19 18 21 23 23 26 32 35 35 32 30 28 28 27 27 28 27 28 28 28 26 24 21 19 18 18 19 20 19 20 19 18 18 18 18 18 17 16 15 15 17 18 20 19 19 19 20 21 20 19 19 21 24 26 27 27 27 27 26 24 22 22 26 31 33 33 34 32 29 29 29 29 29 30 29 26 24 25 25 26 26 25 25 25 24
22 20 18 19 23 24 25 29 35 37 37 34 32 30 30 31 31 31 32 32 31 29 26 21 19 19 19 18 18 19 20 20 19 19 19 20 19 19 18 17 16 17 18 20 21 21 21 20 21 22 21 20 20 23 25 25 25 25 26 25 25 23 21 21 24 25 26 30 33 32 31 31 30 30 32 33 29 25 25 25 26 27 28 27 26 25
24 20 18 19 21 22 25 28 32 34 36 35 33 32 31 31 32 32 32 31 30 27 24 19 17 18 19 18 17 18 18 18 18 18 18 18 18 18 18 17 17 17 18 19 21 22 23 22 21 22 24 24 23 24 25 25 23 22 23 24 24 25 24 23 23 21 19 20 25 28 30 32 33 32 33 35 32 29 28 28 27 28 29 29 27 25
27 21 17 19 19 21 25 29 30 31 32 32 33 32 30 28 28 28 28 26 23 21 19 17 18 19 19 18 17 16 16 16 16 16 16 16 16 17 17 17 17 17 18 19 21 22 23 24 23 23 24 26 26 26 27 28 27 25 24 24 25 26 27 27 26 25 22 20 20 21 23 26 30 32 35 38 38 34 32 31 29 29 30 32 31 29
31 25 19 17 18 21 26 28 29 29 28 28 30 30 27 25 23 22 23 23 21 19 16 15 16 17 17 17 16 16 15 15 15 15 15 15 16 16 17 17 17 18 18 19 20 22 23 24 25 25 25 27 28 28 28 29 29 28 26 26 26 26 25 26 26 26 25 25 25 24 22 21 23 26 29 34 39 40 37 34 32 31 32 33 33 33
32 29 23 18 16 19 24 28 27 27 28 27 27 26 26 24 21 19 19 20 19 16 15 15 16 16 15 15 15 14 14 14 14 15 15 16 16 16 16 17 18 18 19 19 20 22 23 24 26 27 27 27 28 28 28 28 28 27 25 23 23 23 23 23 24 24 24 25 27 27 25 23 23 23 23 25 30 35 38 35 32 33 34 34 34 34
30 28 25 19 14 13 18 26 28 28 29 28 26 26 26 23 21 20 21 21 19 17 17 16 17 17 16 16 15 14 14 14 15 16 16 16 16 16 16 16 17 18 19 20 21 22 23 24 26 28 28 28 28 28 28 28 28 26 24 22 21 21 21 22 22 22 22 23 25 25 24 24 24 23 23 23 24 27 31 33 33 33 35 36 36 36
25 24 23 18 14 13 16 25 31 31 30 28 26 26 26 24 24 24 22 21 20 20 19 18 18 19 18 17 16 15 15 15 16 16 16 16 16 16 16 15 15 16 18 19 20 21 22 24 25 27 28 29 28 28 28 29 28 27 25 23 21 21 21 21 22 22 22 23 24 24 24 25 25 24 25 26 26 24 25 27 29 31 33 35 36 37
23 23 22 19 18 17 15 22 30 31 30 31 29 28 28 27 26 25 22 20 20 20 20 18 18 18 18 17 16 15 15 15 15 15 16 17 16 16 16 15 15 15 16 17 19 21 23 23 24 25 27 28 29 29 29 29 29 28 26 24 23 22 22 22 23 23 24 24 25 26 25 25 26 25 25 27 27 27 27 28 29 31 32 32 34 37
22 22 23 21 21 20 17 19 27 31 31 32 32 31 31 29 27 24 20 18 19 20 20 18 16 16 16 16 15 15 16 16 15 15 16 17 16 16 15 16 15 14 15 16 18 21 23 23 24 24 25 27 28 29 29 29 30 29 27 25 24 23 23 24 24 24 24 24 24 25 25 24 25 26 27 28 28 30 31 32 32 32 31 32 34 37
24 24 26 25 23 23 22 20 24 30 33 34 34 33 32 29 26 25 23 20 20 20 19 17 16 17 17 16 16 16 17 17 16 16 17 17 16 15 15 16 16 15 15 15 17 19 22 23 23 24 24 25 26 28 29 30 31 31 29 26 25 25 24 23 23 23 23 23 23 24 23 22 22 22 24 25 26 27 30 31 30 28 28 31 35 38
28 29 29 29 28 27 25 22 22 27 32 35 36 35 32 29 27 25 23 23 21 20 20 19 18 17 16 16 16 16 16 17 17 17 18 17 16 15 15 15 15 15 15 16 16 18 19 21 22 23 24 24 25 26 28 30 31 31 31 29 27 25 24 22 22 23 23 24 23 21 20 19 16 15 15 16 17 20 23 25 25 24 25 29 32 35
32 32 31 31 31 29 25 21 21 23 26 31 35 36 34 33 31 27 23 22 22 21 21 20 17 15 15 15 15 15 16 16 17 17 17 17 16 15 15 15 14 14 15 15 16 16 17 19 21 22 22 23 23 24 26 30 33 33 33 31 29 26 24 23 24 25 25 24 22 18 17 16 14 13 13 13 15 17 19 20 21 21 21 22 23 25
34 34 34 33 31 29 25 21 21 21 21 24 30 33 33 34 33 29 23 19 19 20 20 18 16 15 15 15 15 16 16 17 16 16 16 16 16 15 15 14 14 14 15 15 16 16 16 17 19 20 20 21 22 22 24 30 33 34 34 33 30 28 26 25 26 27 26 25 24 20 18 17 16 14 13 14 15 17 18 19 19 19 19 20 20 21
35 35 35 34 31 29 25 22 20 20 18 20 25 30 32 32 31 28 23 18 18 19 19 18 17 16 15 15 15 16 17 16 16 16 16 16 15 15 15 14 14 15 15 16 16 17 17 17 18 18 19 19 20 22 25 29 31 33 35 35 32 30 29 27 27 27 26 25 25 23 20 19 17 15 15 15 15 16 16 17 17 18 19 20 21 22
34 34 35 34 31 29 27 24 22 19 16 16 19 24 27 28 26 23 21 19 19 19 19 18 18 17 16 16 16 16 16 16 16 16 16 16 16 15 15 15 15 15 15 16 16 16 17 17 18 18 18 18 19 21 25 28 30 32 37 38 34 32 30 28 26 25 23 23 23 23 22 20 18 18 17 17 16 16 16 16 16 17 17 18 19 20
33 33 35 36 33 30 28 27 24 19 15 14 15 18 20 19 15 13 15 17 19 19 19 18 17 16 16 16 16 16 16 15 16 16 16 16 15 14 14 14 14 15 15 15 15 16 16 17 18 18 18 18 19 20 21 24 29 35 39 38 34 31 29 26 23 22 21 21 21 21 22 21 21 20 19 18 18 17 17 17 17 17 17 18 18 19
35 34 35 36 34 31 30 29 26 22 19 16 16 17 16 12 10 9 12 15 17 18 18 17 16 15 15 15 16 16 15 15 16 17 16 15 15 14 13 13 13 14 15 15 15 15 16 17 18 19 19 19 20 20 20 20 25 32 36 35 33 31 28 25 23 22 22 22 22 22 23 23 22 22 21 20 20 19 19 19 19 19 19 19 19 19
36 35 34 34 33 31 30 30 29 26 22 19 18 18 15 13 12 12 13 15 16 16 16 16 15 15 16 16 16 17 16 16 17 16 15 14 14 13 12 12 12 13 13 14 15 15 15 16 17 19 20 20 21 22 22 21 22 26 30 31 32 32 30 27 26 25 24 24 24 25 25 24 23 22 22 21 21 21 21 21 21 21 21 20 20 20
34 34 34 34 32 30 30 31 31 28 24 20 19 18 15 15 15 16 16 16 17 17 17 16 16 16 16 17 17 18 17 17 16 15 14 13 13 13 12 11 11 12 12 13 14 14 14 15 16 17 19 20 20 20 20 21 22 24 28 31 32 31 30 29 27 26 25 25 25 26 26 25 24 23 22 22 22 22 22 22 22 22 22 22 22 22
32 31 32 32 30 28 30 31 31 28 24 21 18 16 14 14 15 15 16 16 16 16 16 17 17 17 17 18 19 18 17 16 15 14 13 13 12 12 11 10 10 11 11 11 12 13 13 13 14 15 17 18 19 18 18 20 22 24 26 28 29 29 29 28 27 26 26 26 26 26 26 26 25 24 24 23 23 23 23 23 23 23 23 22 22 22
29 28 30 29 27 26 27 27 25 23 20 18 16 14 13 13 13 13 13 13 13 14 14 16 18 18 18 18 18 17 16 15 14 13 12 12 12 11 10 9 9 10 10 11 11 11 12 12 12 13 15 17 18 18 19 21 23 24 26 27 28 28 28 28 27 27 27 27 27 27 27 26 26 25 25 25 24 24 23 23 22 22 21 21 21 21
Wind_Direction
199 187 186 191 198 202 202 208 211 215 224 224 216 211 187 182 206 213 233 269 286 315 332 338 4 25 44 70 97 115 133 149 154 170 182 179 176 175 178 182 179 182 181 172 173 175 183 167 169 198 144 129 115 108 101 93 89 87 84 88 98 103 104 102 101 102 104 105 104 107 106 103 106 107 110 113 117 123 127 129 131 135 139 143 144 146
179 163 166 180 191 200 202 203 204 209 219 209 194 208 194 180 197 203 220 278 297 298 314 326 353 31 66 86 96 107 122 140 152 168 183 186 186 186 188 189 189 189 185 188 186 185 202 193 186 199 169 134 118 113 103 92 91 91 85 87 96 103 105 102 100 102 103 104 104 111 118 118 115 114 114 117 119 122 126 129 131 135 139 142 143 145
174 164 170 181 190 202 207 207 209 214 216 199 186 203 192 176 197 203 205 273 293 288 305 315 316 33 68 90 102 109 116 135 150 173 191 193 196 200 198 199 205 203 197 207 199 192 217 213 193 203 200 168 133 119 109 98 92 93 88 88 96 103 106 105 103 101 102 103 104 108 117 122 120 120 122 123 124 124 126 129 132 136 140 141 140 142
181 176 178 188 195 200 205 208 211 218 215 192 179 200 203 185 198 208 200 240 296 290 294 283 228 151 117 98 112 120 118 145 172 197 212 213 206 204 209 209 208 213 219 225 212 203 213 221 217 224 231 223 158 117 112 108 96 93 93 93 98 105 108 108 107 104 104 106 107 108 112 118 121 123 128 131 131 129 129 131 132 135 136 137 138 141
182 186 184 191 198 198 204 207 213 219 205 176 177 201 211 198 198 213 204 191 297 287 282 260 218 181 184 155 99 163 179 220 242 236 230 231 220 210 217 216 213 220 220 219 215 206 205 215 229 225 229 241 213 123 113 117 111 99 96 97 99 104 108 110 111 108 107 107 109 111 113 119 126 129 133 136 137 134 133 131 131 132 134 137 139 140
172 191 193 202 207 201 206 210 218 215 171 163 185 202 212 210 205 208 200 182 273 269 268 253 219 199 202 187 154 253 249 245 260 265 249 240 232 221 220 220 223 224 212 209 211 203 207 221 237 233 228 230 240 198 137 127 125 113 101 101 102 106 108 109 112 113 112 110 109 111 113 118 127 132 136 138 139 136 134 134 134 136 139 142 141 139
151 179 189 215 218 200 198 206 216 203 165 166 188 201 210 214 209 206 193 192 242 249 245 237 218 204 207 205 207 250 265 259 262 277 276 264 250 233 223 221 224 224 214 218 220 208 213 228 240 244 234 212 232 235 183 137 130 125 113 107 106 112 115 113 112 113 114 114 111 110 112 115 121 127 133 137 140 138 136 139 141 141 143 144 142 140
159 183 161 171 205 201 199 210 214 187 169 173 187 197 207 214 210 201 194 209 234 242 236 229 219 209 207 213 218 235 254 260 263 274 281 290 275 242 227 221 222 223 221 225 227 219 219 226 233 239 234 206 215 234 226 170 146 138 130 124 116 117 122 123 121 117 115 115 112 110 109 111 113 116 124 133 135 133 135 142 145 143 142 142 142 142
148 160 166 170 186 211 224 230 203 177 173 179 186 192 203 220 217 204 209 223 230 235 235 233 232 225 225 230 226 230 253 276 282 277 274 295 303 251 225 219 222 225 223 223 225 224 224 222 225 232 231 215 206 219 237 214 180 160 150 145 134 128 128 131 132 129 125 122 119 116 113 111 111 112 118 124 128 130 135 142 144 143 142 142 142 143
102 110 119 171 190 222 278 256 183 178 182 184 184 186 194 216 224 217 223 230 234 246 261 268 268 261 254 256 251 246 258 274 289 291 280 289 306 277 231 219 221 227 227 226 225 225 228 228 228 228 224 218 209 212 228 229 214 199 177 167 154 144 138 137 140 140 139 136 132 129 125 123 121 121 122 123 128 132 136 140 140 140 142 142 142 145
112 103 77 69 247 312 306 272 178 184 194 193 187 188 191 195 210 223 227 235 251 282 303 288 278 270 262 259 257 252 252 258 271 287 289 288 289 285 254 227 226 232 231 227 224 223 227 232 235 228 216 213 212 212 221 226 225 223 206 190 176 165 153 146 146 146 147 146 144 141 138 136 134 132 131 132 133 134 136 139 140 141 143 144 145 148
137 123 85 38 341 324 259 242 206 190 202 202 192 194 197 195 198 205 217 235 252 284 279 262 264 265 261 254 249 247 249 253 252 256 263 268 266 260 251 239 239 240 230 224 223 222 224 230 235 228 214 212 212 213 222 224 224 229 223 210 197 183 172 161 155 152 152 154 152 148 146 144 142 141 141 141 140 139 141 143 144 145 147 149 152 151
167 159 82 33 351 334 208 217 215 182 197 203 190 191 203 205 205 213 224 228 229 217 224 236 242 253 258 249 244 241 242 247 243 240 243 245 247 243 237 233 232 237 228 223 225 226 224 225 227 221 213 212 210 212 224 228 226 230 229 222 213 199 187 177 171 164 159 161 163 158 153 151 149 150 150 149 149 149 150 152 152 153 155 157 159 158
181 166 89 64 12 12 165 194 180 169 181 182 172 170 186 202 204 209 212 206 209 231 240 239 238 246 251 247 245 238 235 241 242 245 247 247 252 252 247 238 226 221 220 222 227 228 223 220 223 220 215 215 213 213 225 230 229 231 231 229 224 214 201 190 186 183 174 169 173 171 165 160 157 156 157 157 158 159 160 162 162 164 167 167 167 168
193 163 102 94 300 335 345 188 177 182 177 163 159 159 162 178 183 184 196 210 235 253 251 244 238 239 240 242 241 233 232 241 249 257 265 270 272 271 269 262 244 230 222 222 226 227 222 220 225 227 222 219 217 220 229 232 231 232 232 230 229 224 213 202 196 196 193 183 181 183 180 173 168 164 164 165 166 168 169 172 173 173 176 178 178 178
225 163 142 191 274 325 17 174 178 191 189 168 162 159 161 177 180 183 215 236 244 249 249 248 245 244 246 243 237 233 241 253 261 264 268 276 277 275 278 276 264 257 248 236 233 233 229 225 227 229 228 224 223 227 232 233 234 233 232 230 231 231 225 216 206 201 202 198 192 191 191 188 182 175 172 172 173 176 178 181 182 181 182 185 186 186
248 196 160 180 246 343 30 176 180 188 191 177 168 162 169 190 193 200 230 236 235 240 244 249 253 256 257 249 240 240 250 260 262 258 256 261 260 254 257 256 249 255 258 251 248 246 234 227 225 226 226 225 225 229 231 234 237 237 234 232 232 234 234 230 221 212 210 208 203 199 197 197 195 189 183 180 180 181 185 190 193 192 191 191 192 191
228 218 180 206 242 275 261 196 183 170 168 176 170 166 181 203 201 205 226 232 233 234 238 247 250 251 253 248 241 241 244 248 250 247 245 249 248 238 236 236 232 238 247 254 258 250 233 224 222 221 221 223 224 227 231 234 236 235 233 231 229 231 233 233 233 229 227 227 222 215 208 204 204 201 196 191 188 188 190 195 199 202 202 201 200 199
223 219 222 247 227 141 130 188 184 170 173 184 180 182 197 210 207 213 227 232 232 231 237 248 247 245 248 245 241 239 237 240 246 245 244 251 254 245 235 234 235 240 246 250 253 253 239 227 222 220 220 224 223 221 226 232 233 231 231 230 230 232 232 230 232 232 229 229 233 233 227 219 213 211 208 204 199 196 196 199 204 207 209 210 211 210
220 222 225 241 222 146 129 171 187 195 195 178 176 195 204 206 205 212 225 229 228 228 233 241 242 242 241 237 238 239 237 242 248 247 248 254 262 264 256 243 239 241 244 247 249 253 251 240 232 227 223 222 221 218 221 227 230 231 232 231 231 232 231 229 231 233 229 224 225 231 235 233 227 221 218 216 212 207 205 206 208 211 214 218 220 220
218 225 226 234 238 196 165 176 185 198 196 176 178 198 206 207 205 211 227 231 226 227 232 236 238 239 237 236 241 247 248 251 251 249 250 259 270 274 269 256 246 243 243 246 247 246 247 246 242 236 229 224 221 220 222 224 225 229 233 234 233 233 231 228 229 232 233 231 228 228 232 235 233 230 227 224 221 218 216 215 216 218 221 226 229 231
220 225 229 234 242 232 201 191 189 189 188 186 193 202 205 210 211 214 228 235 232 231 234 238 239 239 238 240 248 255 256 254 255 259 261 265 272 273 268 260 252 247 246 247 247 244 242 244 244 241 240 236 230 227 228 226 222 224 231 237 238 237 235 229 225 227 230 234 235 232 231 235 236 232 228 226 224 220 218 216 217 218 221 225 229 234
223 226 232 237 243 240 220 207 198 190 188 193 204 214 217 224 228 226 229 236 240 237 237 241 243 244 244 244 250 256 258 255 259 269 273 267 262 259 261 264 258 251 250 249 247 245 240 240 242 240 242 244 240 234 232 227 221 219 223 229 230 234 239 235 227 224 224 227 234 234 230 231 236 235 231 228 227 225 223 221 219 220 221 222 225 228
228 225 229 236 244 244 231 221 210 199 198 201 211 223 232 241 247 241 233 235 242 242 240 242 245 250 252 250 254 260 263 263 264 273 276 267 255 249 252 263 264 257 253 252 252 252 243 234 236 237 240 245 245 241 235 228 223 220 222 225 225 229 235 234 229 228 225 222 225 232 232 230 233 238 238 235 234 234 235 233 229 227 228 228 229 230
236 230 226 228 236 238 231 227 218 205 206 212 218 228 235 241 245 242 235 235 240 243 243 242 245 251 255 255 258 261 264 265 265 272 275 264 254 252 253 260 266 265 260 256 256 256 252 240 233 235 240 245 248 246 241 234 228 225 227 229 229 230 231 230 231 233 230 223 220 225 232 234 235 237 239 238 236 236 238 239 237 234 234 236 238 239
243 238 230 225 227 226 224 228 227 216 218 225 229 230 232 236 240 245 245 240 238 241 243 243 246 252 257 259 262 262 262 261 263 270 272 267 261 261 262 264 265 265 262 260 258 257 256 251 242 238 240 243 247 249 246 240 233 229 232 232 229 228 229 230 231 231 228 226 224 224 227 232 236 236 235 237 236 233 232 234 236 238 240 241 240 241
246 239 234 227 223 219 217 225 230 228 231 237 234 226 226 232 239 247 253 251 245 244 246 247 250 254 258 261 263 262 257 257 263 271 273 272 270 271 274 273 270 266 260 257 258 257 256 255 252 249 245 242 244 247 248 244 237 233 236 236 232 229 230 232 232 230 227 227 228 227 224 227 234 234 230 232 235 234 232 231 234 237 240 241 239 237
249 239 235 226 219 216 214 220 230 234 235 237 233 226 226 235 244 250 256 260 259 256 255 254 253 254 256 258 260 258 255 258 265 270 273 275 276 278 278 275 271 268 261 255 255 256 256 256 255 255 249 239 236 239 245 247 244 239 238 238 236 234 233 233 231 230 229 228 229 232 228 225 229 231 228 230 234 235 234 233 233 234 234 234 236 236
247 242 238 227 219 215 213 218 228 236 237 237 238 235 233 237 249 257 260 263 265 264 262 261 259 258 256 256 257 256 257 261 265 267 272 276 280 282 280 275 271 266 262 257 254 254 254 254 254 255 252 242 234 235 240 243 244 245 244 245 244 242 238 234 230 229 232 231 230 233 233 228 228 230 230 230 233 236 237 236 235 235 233 231 233 236
250 255 251 235 226 222 216 217 224 232 238 240 242 244 243 244 252 260 262 264 268 270 270 272 274 273 266 259 258 257 256 258 260 265 270 275 279 282 280 276 271 266 263 259 254 251 251 251 249 249 252 250 242 238 236 235 236 239 243 247 248 247 244 235 229 230 234 235 232 234 237 234 233 234 232 229 230 237 241 241 239 236 234 234 236 240
261 269 263 243 231 225 219 219 224 230 236 239 242 245 247 250 257 261 261 263 266 269 273 279 280 276 271 266 262 259 258 259 261 264 269 273 277 279 279 275 270 266 263 258 253 248 246 247 246 245 248 251 249 243 238 232 228 230 236 241 246 249 248 238 230 232 238 238 235 237 239 236 235 237 232 227 230 238 243 243 240 236 233 233 236 240
269 272 262 245 233 225 221 224 227 229 234 238 240 242 244 250 259 262 261 261 263 267 273 278 273 270 272 273 269 266 265 265 265 266 269 273 277 278 278 277 273 268 263 258 253 247 243 243 244 243 244 246 247 245 243 238 234 233 237 243 249 254 255 250 246 249 253 246 240 240 242 239 239 238 232 227 231 238 242 242 241 237 232 232 237 242
271 267 254 243 235 224 221 226 231 232 235 238 242 245 247 250 257 263 265 264 263 265 272 274 269 269 272 274 275 276 274 272 270 270 271 273 276 278 279 279 278 274 267 260 253 247 242 240 241 241 239 240 242 242 244 245 245 245 248 252 255 259 261 262 262 263 263 259 254 250 247 244 244 243 238 233 234 238 240 239 239 238 236 238 243 248
272 267 254 244 242 235 228 228 231 233 236 239 244 250 254 256 259 265 270 270 266 264 269 276 275 275 276 277 279 279 278 277 276 274 274 274 276 278 279 279 278 275 270 263 254 248 243 240 239 239 236 236 237 238 240 243 246 248 251 255 259 261 262 263 264 264 262 260 261 259 254 251 253 254 250 243 238 237 236 235 236 238 240 243 247 250
269 270 264 251 243 241 235 228 226 229 233 237 241 248 255 259 262 266 272 275 273 268 269 274 275 272 272 274 275 276 277 279 279 277 277 278 279 280 279 277 276 274 271 265 256 248 244 241 240 239 237 234 234 235 235 237 241 245 246 249 255 258 260 260 260 260 260 259 260 260 258 258 258 258 258 254 246 239 236 236 238 240 243 245 248 251
262 269 270 260 241 231 227 222 219 223 230 233 236 242 248 253 258 263 271 276 276 272 271 273 272 270 271 273 275 278 280 281 282 281 281 280 280 280 279 277 276 274 272 268 260 251 245 243 241 240 238 235 233 234 236 236 236 237 238 242 247 252 255 258 258 258 258 258 258 258 257 256 255 254 253 251 248 244 240 240 241 243 246 247 247 249
252 256 263 261 244 230 222 218 218 221 225 228 231 238 243 247 250 256 263 268 268 268 269 268 266 268 272 276 279 283 283 283 283 283 284 284 282 280 279 279 278 276 275 271 263 254 248 246 244 242 241 237 233 232 235 235 234 235 236 237 240 242 245 248 250 250 250 251 252 252 249 248 250 251 248 245 244 245 245 244 244 245 249 251 250 249
238 241 248 253 249 243 230 218 219 221 223 225 228 232 237 241 245 251 256 259 262 266 266 263 260 263 269 273 276 280 283 285 287 288 288 287 286 284 283 280 277 276 275 270 262 253 249 248 247 246 245 243 237 233 233 234 235 237 237 236 236 238 238 239 240 242 241 242 244 246 245 244 244 244 243 241 242 242 242 242 243 245 249 253 254 252
237 242 247 250 253 254 245 225 219 221 225 228 229 231 236 240 243 247 251 253 256 261 265 266 265 265 268 271 276 280 284 286 289 290 289 287 286 287 286 283 280 277 274 268 259 251 248 248 249 250 249 248 243 238 235 234 235 236 235 233 232 234 235 236 238 240 240 239 240 243 243 242 243 245 243 242 241 240 240 240 240 242 245 250 253 254
235 243 249 252 254 256 253 239 225 223 227 232 235 238 244 249 248 245 245 249 252 256 261 268 272 273 274 277 281 284 285 287 288 288 288 287 287 288 287 285 283 281 276 270 260 252 248 248 251 252 251 250 248 245 240 236 235 235 233 229 228 230 233 235 237 238 238 236 237 241 242 241 243 244 244 243 242 240 241 241 242 244 246 249 252 253
232 238 248 253 254 254 253 246 237 231 228 231 238 242 246 251 252 249 249 252 255 255 259 266 272 276 278 281 285 286 285 286 287 288 288 287 287 288 288 286 284 282 279 273 265 256 250 248 251 253 253 251 250 247 242 239 238 236 232 226 225 227 230 232 233 235 234 232 233 235 233 231 231 233 236 240 239 236 234 235 238 240 244 249 252 253
232 235 244 251 253 255 253 247 246 244 234 231 237 242 244 249 255 259 258 256 256 257 261 266 270 273 279 284 288 288 286 284 283 284 285 287 289 289 286 285 285 284 281 277 270 263 255 251 251 253 253 252 249 247 246 244 240 234 228 223 223 227 229 229 230 230 230 229 232 236 237 236 238 242 246 247 241 236 233 233 234 237 240 245 248 251
235 237 242 246 248 251 252 249 249 250 244 235 235 240 244 248 254 259 260 256 254 258 263 266 268 272 280 285 287 286 283 281 280 280 283 287 290 288 284 282 282 281 279 276 272 267 261 256 253 252 252 251 249 246 244 240 233 225 221 221 223 226 228 227 227 228 230 231 235 242 247 248 248 249 248 244 240 238 237 237 239 240 242 245 247 249
238 238 240 243 244 246 251 251 248 248 250 245 238 238 243 247 251 256 258 257 258 261 265 267 270 275 280 283 283 282 280 280 281 281 284 287 288 287 284 281 277 274 273 270 267 265 263 260 256 252 249 247 245 241 237 234 229 223 220 221 222 223 224 223 224 228 233 236 239 243 246 248 249 246 241 240 240 240 239 240 242 243 245 248 249 251
235 234 235 238 239 241 246 249 250 250 254 255 246 241 244 249 254 256 256 257 259 263 266 268 271 275 280 282 282 280 280 281 281 282 284 287 287 286 283 279 275 271 269 266 263 260 258 257 255 254 250 244 243 243 242 244 242 232 222 220 220 217 217 220 222 226 232 235 238 242 246 249 248 244 242 241 242 243 244 245 246 247 249 251 252 253
233 231 232 235 236 237 241 247 251 251 249 252 254 250 250 255 260 259 253 252 255 260 266 270 273 275 278 281 281 281 281 282 282 283 284 286 286 283 278 274 272 270 269 268 266 261 256 252 250 251 250 245 243 243 245 251 249 234 219 214 215 214 214 218 221 226 232 236 239 243 246 249 249 248 247 246 246 248 250 251 252 253 253 255 256 257
233 230 230 234 236 236 239 245 249 249 247 251 256 258 260 265 265 256 249 250 252 256 262 268 272 274 275 278 279 281 282 282 282 283 285 285 284 280 274 268 267 268 269 271 270 267 261 255 249 247 247 244 242 240 240 245 245 234 221 215 217 217 216 218 222 227 234 240 244 246 248 249 251 250 250 250 250 251 253 255 258 259 259 260 261 261
229 227 229 234 234 234 237 241 245 249 254 257 257 260 267 272 266 258 255 256 258 259 263 267 270 271 273 275 278 280 281 281 280 282 284 284 280 275 271 267 265 266 268 270 271 270 267 262 255 250 248 245 241 238 235 235 236 234 230 229 228 225 223 222 223 227 233 238 243 246 248 250 252 252 252 253 254 255 257 259 261 263 264 266 267 266
226 226 230 233 234 234 236 240 245 251 257 257 256 258 264 267 265 264 263 264 265 266 268 269 269 269 271 273 276 278 278 277 277 279 281 281 278 274 270 266 264 263 263 265 267 269 269 266 261 256 255 254 249 242 237 235 232 231 233 234 232 229 227 226 226 229 234 239 243 246 249 251 255 257 257 258 258 259 261 262 263 265 267 268 269 269
227 229 232 233 234 235 239 243 247 250 253 254 255 260 265 268 268 267 265 267 268 270 271 271 270 269 269 270 271 273 273 273 274 277 278 278 276 273 270 267 264 262 260 260 261 263 266 267 264 259 257 257 255 247 242 241 237 232 230 232 231 229 228 229 231 235 239 244 247 249 251 253 256 259 262 263 263 263 263 263 264 265 267 268 269 269
225 231 234 235 236 237 241 245 246 247 249 252 256 261 267 270 270 270 270 271 271 272 273 273 271 270 268 267 267 268 268 269 272 274 275 274 270 266 264 263 262 260 259 259 259 260 262 265 266 263 258 256 254 248 243 244 244 238 232 230 229 229 231 234 237 240 244 247 249 251 253 255 259 261 263 264 265 264 263 263 263 263 264 265 266 266
Height
5879 5880 5882 5884 5885 5886 5887 5888 5889 5890 5890 5891 5892 5893 5895 5896 5897 5896 5895 5895 5896 5897 5896 5896 5895 5894 5894 5893 5894 5895 5896 5897 5898 5898 5899 5900 5901 5901 5902 5902 5903 5903 5904 5905 5905 5906 5907 5908 5909 5909 5909 5908 5908 5909 5909 5909 5909 5909 5910 5909 5909 5909 5908 5908 5908 5909 5910 5910 5910 5910 5910 5910 5911 5911 5911 5911 5912 5913 5914 5914 5915 5917 5918 5919 5920 5921
5878 5879 5880 5882 5883 5883 5884 5885 5886 5887 5889 5890 5890 5891 5893 5895 5895 5895 5894 5894 5895 5896 5896 5895 5895 5895 5895 5895 5895 5896 5897 5898 5898 5899 5899 5900 5902 5902 5902 5903 5903 5903 5904 5904 5905 5905 5906 5907 5909 5909 5909 5909 5909 5909 5909 5909 5909 5910 5910 5910 5910 5909 5909 5908 5909 5909 5910 5911 5911 5911 5911 5912 5912 5912 5913 5913 5914 5914 5915 5916 5917 5918 5920 5921 5921 5922
5876 5877 5878 5879 5880 5881 5882 5884 5885 5886 5887 5887 5889 5890 5892 5894 5894 5893 5893 5894 5894 5894 5895 5895 5895 5895 5895 5895 5896 5896 5897 5898 5899 5900 5900 5901 5902 5903 5903 5903 5903 5904 5904 5904 5904 5905 5905 5906 5907 5908 5909 5909 5909 5909 5908 5909 5909 5910 5910 5910 5910 5910 5910 5909 5909 5910 5911 5911 5912 5913 5913 5913 5913 5914 5914 5915 5915 5916 5917 5917 5919 5920 5921 5922 5922 5923
5874 5874 5876 5877 5878 5879 5881 5883 5883 5884 5885 5886 5888 5890 5891 5893 5893 5892 5893 5893 5893 5893 5894 5894 5894 5894 5895 5895 5896 5897 5898 5898 5899 5900 5900 5901 5902 5903 5902 5902 5903 5904 5906 5906 5905 5905 5904 5905 5906 5907 5908 5909 5908 5908 5908 5909 5909 5910 5910 5910 5911 5911 5911 5910 5910 5910 5911 5912 5912 5913 5914 5914 5914 5915 5915 5916 5917 5918 5918 5919 5920 5921 5922 5923 5923 5924
5874 5874 5875 5876 5878 5879 5880 5881 5882 5883 5886 5888 5889 5889 5890 5891 5890 5891 5892 5893 5893 5892 5893 5894 5894 5894 5895 5895 5896 5897 5898 5898 5899 5899 5900 5901 5902 5902 5902 5903 5903 5903 5905 5906 5906 5907 5906 5905 5906 5907 5908 5908 5908 5908 5908 5909 5909 5910 5910 5910 5910 5911 5911 5912 5911 5911 5911 5912 5912 5913 5914 5915 5915 5915 5916 5916 5917 5918 5919 5920 5920 5921 5922 5923 5924 5925
5874 5875 5876 5876 5878 5878 5879 5880 5881 5882 5886 5888 5888 5888 5887 5888 5888 5889 5891 5892 5892 5891 5892 5893 5893 5894 5894 5895 5896 5896 5897 5898 5899 5899 5900 5900 5901 5902 5902 5903 5903 5903 5904 5905 5906 5907 5907 5907 5906 5906 5907 5908 5908 5908 5909 5909 5909 5910 5910 5910 5911 5911 5911 5912 5912 5912 5912 5912 5913 5913 5914 5915 5916 5916 5916 5917 5918 5918 5919 5920 5921 5921 5922 5924 5925 5925
5873 5874 5875 5875 5875 5876 5876 5877 5878 5880 5884 5886 5886 5886 5885 5885 5887 5888 5890 5891 5891 5891 5891 5892 5893 5894 5894 5895 5895 5896 5896 5897 5898 5899 5899 5900 5901 5901 5902 5902 5902 5903 5903 5904 5905 5905 5906 5908 5908 5907 5907 5908 5908 5908 5908 5909 5909 5909 5910 5911 5911 5911 5912 5912 5913 5912 5912 5912 5913 5913 5914 5915 5916 5916 5916 5917 5918 5918 5919 5920 5921 5922 5923 5924 5925 5926
5872 5873 5873 5874 5874 5875 5875 5876 5877 5879 5881 5883 5884 5885 5884 5884 5885 5887 5888 5889 5889 5890 5891 5891 5892 5893 5894 5894 5895 5896 5897 5897 5897 5897 5898 5898 5899 5899 5900 5901 5901 5902 5902 5902 5903 5905 5905 5906 5907 5907 5906 5907 5908 5908 5908 5908 5908 5908 5909 5910 5911 5912 5912 5913 5913 5913 5913 5913 5913 5913 5914 5915 5915 5916 5916 5917 5917 5918 5919 5920 5921 5922 5923 5924 5925 5926
5872 5872 5873 5874 5874 5875 5876 5877 5876 5877 5878 5880 5882 5883 5883 5882 5884 5885 5886 5887 5887 5889 5891 5892 5892 5893 5894 5894 5895 5896 5897 5897 5896 5896 5896 5896 5896 5896 5898 5899 5900 5900 5901 5901 5902 5904 5905 5905 5906 5906 5906 5906 5907 5907 5907 5908 5908 5908 5909 5909 5910 5911 5912 5913 5914 5914 5914 5914 5913 5913 5914 5914 5915 5916 5916 5917 5918 5918 5919 5920 5921 5922 5923 5924 5925 5926
5872 5872 5873 5874 5875 5876 5876 5876 5876 5875 5876 5877 5880 5882 5882 5882 5883 5884 5885 5885 5886 5888 5890 5891 5892 5893 5894 5895 5895 5896 5896 5896 5896 5895 5895 5895 5895 5895 5895 5897 5898 5899 5900 5901 5901 5902 5904 5904 5905 5905 5906 5906 5905 5906 5906 5907 5908 5908 5908 5908 5909 5910 5912 5913 5913 5914 5915 5915 5915 5915 5915 5915 5916 5916 5917 5918 5919 5919 5920 5920 5921 5922 5923 5925 5926 5927
5871 5872 5873 5874 5874 5875 5875 5875 5875 5875 5875 5877 5880 5881 5882 5883 5884 5884 5885 5885 5885 5887 5889 5889 5890 5891 5892 5893 5894 5894 5894 5894 5895 5895 5894 5894 5894 5894 5894 5895 5896 5897 5898 5899 5900 5901 5902 5903 5903 5905 5906 5906 5906 5904 5905 5907 5908 5908 5908 5908 5908 5909 5910 5912 5913 5914 5915 5915 5915 5916 5916 5916 5916 5917 5918 5919 5920 5920 5921 5921 5922 5923 5924 5925 5926 5927
5870 5871 5872 5872 5873 5873 5874 5874 5874 5874 5875 5876 5880 5881 5882 5883 5884 5885 5885 5886 5887 5888 5887 5887 5888 5888 5889 5890 5891 5892 5892 5893 5893 5893 5893 5892 5892 5892 5893 5894 5894 5894 5895 5896 5898 5900 5901 5901 5902 5903 5904 5906 5907 5905 5904 5905 5907 5907 5908 5908 5908 5909 5909 5910 5912 5912 5913 5914 5915 5915 5916 5916 5917 5917 5918 5919 5920 5920 5921 5922 5922 5923 5923 5924 5925 5926
5869 5870 5870 5871 5871 5872 5873 5874 5874 5874 5874 5876 5879 5881 5882 5882 5883 5884 5886 5887 5888 5887 5885 5885 5885 5885 5886 5886 5887 5888 5889 5890 5890 5891 5891 5890 5890 5890 5890 5891 5892 5892 5893 5894 5896 5898 5899 5899 5900 5902 5902 5904 5906 5905 5903 5904 5906 5907 5907 5908 5908 5908 5908 5909 5910 5911 5912 5913 5914 5914 5915 5915 5916 5917 5917 5918 5919 5920 5921 5922 5922 5922 5923 5924 5924 5925
5868 5868 5869 5870 5872 5872 5872 5873 5874 5874 5874 5875 5877 5878 5880 5882 5883 5884 5885 5885 5885 5884 5883 5884 5883 5882 5882 5882 5883 5885 5886 5887 5889 5890 5890 5890 5890 5890 5890 5889 5889 5889 5890 5892 5892 5894 5896 5897 5899 5900 5901 5902 5904 5905 5903 5903 5905 5906 5907 5907 5908 5908 5908 5908 5909 5910 5911 5912 5912 5913 5914 5914 5915 5916 5917 5917 5918 5919 5920 5921 5921 5922 5923 5923 5924 5924
5866 5867 5868 5870 5872 5872 5872 5873 5874 5875 5874 5874 5875 5876 5878 5880 5881 5882 5883 5883 5883 5882 5882 5882 5881 5880 5880 5880 5881 5882 5885 5887 5888 5889 5890 5891 5891 5891 5891 5890 5889 5887 5887 5888 5888 5890 5893 5896 5898 5900 5900 5900 5903 5904 5902 5901 5903 5905 5906 5907 5907 5907 5907 5907 5908 5909 5910 5910 5911 5912 5912 5913 5914 5914 5915 5916 5917 5918 5919 5920 5920 5921 5922 5922 5923 5923
5866 5867 5867 5869 5870 5871 5872 5872 5873 5874 5874 5874 5874 5875 5876 5878 5879 5881 5881 5881 5881 5881 5881 5880 5879 5879 5879 5879 5880 5883 5885 5886 5887 5888 5888 5889 5889 5890 5890 5891 5891 5890 5889 5887 5887 5889 5892 5894 5896 5897 5899 5899 5901 5903 5901 5900 5902 5904 5905 5905 5906 5907 5907 5906 5906 5907 5908 5909 5910 5910 5911 5912 5913 5913 5914 5915 5916 5917 5918 5919 5919 5920 5921 5921 5922 5923
5866 5866 5867 5868 5869 5870 5871 5871 5871 5872 5874 5874 5874 5875 5875 5876 5877 5879 5879 5878 5878 5879 5879 5878 5878 5878 5879 5880 5882 5883 5884 5885 5885 5885 5885 5885 5885 5886 5886 5887 5888 5889 5889 5888 5888 5889 5890 5891 5893 5894 5895 5897 5899 5900 5900 5900 5901 5903 5904 5905 5905 5906 5906 5906 5906 5906 5907 5908 5908 5909 5910 5911 5912 5912 5913 5914 5915 5916 5917 5918 5918 5919 5920 5920 5921 5922
5866 5866 5866 5867 5868 5870 5870 5870 5871 5872 5873 5874 5874 5875 5875 5875 5876 5877 5877 5876 5876 5877 5876 5876 5876 5877 5877 5879 5880 5881 5882 5882 5882 5881 5881 5881 5882 5882 5883 5884 5885 5885 5886 5885 5885 5886 5886 5887 5889 5891 5892 5894 5896 5898 5899 5899 5900 5901 5902 5903 5903 5903 5904 5906 5906 5907 5907 5908 5909 5909 5910 5910 5911 5912 5912 5913 5914 5915 5916 5916 5917 5918 5919 5919 5920 5921
5866 5866 5867 5867 5867 5868 5868 5869 5870 5871 5871 5872 5873 5874 5874 5874 5875 5876 5875 5874 5874 5874 5874 5873 5874 5875 5875 5876 5877 5879 5879 5880 5880 5879 5879 5879 5880 5881 5882 5883 5883 5883 5883 5883 5882 5883 5884 5884 5885 5886 5888 5889 5891 5894 5896 5897 5898 5899 5900 5900 5901 5901 5902 5904 5906 5906 5907 5908 5909 5910 5910 5910 5911 5911 5912 5912 5913 5914 5915 5915 5916 5917 5918 5919 5919 5920
5865 5865 5866 5866 5866 5866 5866 5867 5869 5869 5870 5871 5872 5872 5871 5871 5873 5873 5872 5871 5870 5871 5871 5871 5872 5873 5873 5874 5875 5876 5877 5878 5879 5878 5877 5878 5878 5879 5880 5881 5881 5881 5881 5880 5880 5882 5883 5883 5883 5884 5885 5886 5887 5889 5892 5894 5896 5897 5897 5898 5899 5900 5901 5903 5904 5905 5906 5906 5907 5909 5910 5910 5910 5911 5911 5912 5913 5914 5914 5915 5916 5917 5918 5919 5919 5920
5863 5864 5864 5865 5866 5866 5865 5865 5866 5867 5869 5870 5869 5869 5868 5869 5871 5871 5870 5869 5868 5868 5869 5870 5870 5871 5872 5872 5873 5874 5876 5877 5877 5876 5876 5876 5876 5877 5878 5879 5879 5879 5878 5878 5878 5879 5880 5881 5882 5883 5884 5884 5885 5887 5889 5891 5893 5894 5895 5896 5897 5898 5899 5901 5902 5903 5904 5905 5906 5907 5908 5909 5910 5910 5911 5912 5912 5913 5914 5915 5916 5917 5918 5918 5919 5920
5861 5862 5863 5864 5864 5866 5865 5864 5864 5866 5867 5868 5867 5866 5866 5869 5871 5871 5869 5868 5867 5867 5867 5868 5869 5869 5870 5871 5872 5872 5874 5875 5874 5874 5875 5875 5875 5875 5875 5876 5877 5877 5876 5876 5875 5876 5878 5879 5881 5882 5883 5883 5884 5886 5887 5889 5891 5892 5894 5895 5897 5898 5898 5899 5899 5900 5902 5904 5905 5906 5907 5908 5908 5909 5909 5910 5911 5911 5912 5913 5914 5915 5916 5917 5918 5919
5860 5861 5862 5863 5863 5865 5864 5863 5863 5864 5865 5867 5866 5865 5866 5868 5869 5869 5868 5866 5866 5866 5865 5866 5867 5868 5869 5870 5871 5871 5872 5873 5873 5873 5873 5874 5874 5874 5873 5873 5874 5875 5874 5873 5872 5874 5876 5878 5879 5880 5881 5881 5881 5883 5885 5887 5888 5889 5891 5893 5895 5897 5898 5898 5897 5897 5898 5901 5903 5904 5905 5906 5907 5907 5907 5908 5909 5910 5911 5912 5913 5913 5914 5915 5916 5917
5856 5858 5860 5861 5862 5864 5863 5862 5863 5863 5864 5865 5866 5865 5865 5865 5865 5866 5865 5865 5864 5865 5864 5865 5865 5866 5867 5868 5869 5869 5870 5872 5872 5871 5872 5872 5873 5873 5872 5872 5872 5872 5872 5871 5870 5871 5875 5877 5877 5878 5879 5879 5879 5881 5882 5883 5884 5885 5887 5889 5891 5893 5894 5895 5896 5896 5897 5897 5899 5902 5903 5903 5904 5905 5906 5906 5908 5909 5910 5911 5912 5913 5913 5914 5915 5915
5854 5855 5856 5858 5859 5862 5861 5860 5861 5863 5863 5863 5864 5863 5862 5861 5861 5861 5862 5863 5862 5862 5862 5863 5863 5864 5865 5866 5867 5867 5868 5869 5870 5870 5870 5870 5871 5871 5871 5871 5871 5871 5870 5869 5868 5869 5871 5874 5875 5876 5877 5877 5877 5878 5880 5881 5882 5883 5885 5886 5888 5889 5890 5892 5894 5895 5896 5895 5896 5898 5900 5902 5902 5903 5904 5905 5906 5907 5908 5910 5911 5911 5912 5913 5913 5915
5852 5852 5853 5854 5856 5858 5859 5858 5859 5861 5861 5861 5861 5860 5858 5858 5858 5858 5860 5860 5860 5859 5860 5861 5862 5862 5863 5864 5865 5865 5865 5867 5868 5868 5867 5868 5869 5869 5869 5869 5869 5870 5869 5868 5868 5867 5868 5870 5872 5874 5875 5874 5875 5876 5877 5878 5880 5882 5882 5883 5885 5886 5888 5890 5890 5892 5893 5894 5894 5894 5896 5898 5900 5901 5902 5903 5903 5904 5906 5907 5908 5909 5910 5911 5912 5913
5848 5849 5849 5851 5853 5855 5856 5856 5855 5857 5858 5858 5858 5857 5856 5856 5856 5856 5856 5857 5857 5857 5858 5859 5860 5861 5861 5862 5863 5863 5863 5864 5866 5866 5865 5865 5866 5866 5867 5867 5867 5867 5868 5867 5867 5866 5866 5868 5869 5871 5872 5873 5873 5874 5874 5875 5877 5879 5880 5881 5882 5884 5885 5887 5888 5889 5890 5892 5892 5892 5892 5894 5896 5897 5898 5899 5901 5902 5903 5904 5905 5907 5908 5909 5910 5910
5845 5846 5846 5848 5850 5851 5853 5853 5852 5853 5854 5855 5855 5855 5854 5853 5853 5853 5854 5855 5855 5856 5857 5858 5858 5859 5859 5859 5860 5861 5861 5862 5863 5864 5863 5863 5863 5864 5864 5865 5865 5865 5865 5865 5865 5865 5865 5865 5866 5867 5869 5871 5872 5872 5873 5873 5875 5876 5878 5879 5880 5881 5881 5883 5885 5886 5887 5889 5890 5890 5888 5889 5892 5893 5895 5896 5897 5898 5899 5900 5902 5903 5904 5906 5907 5908
5843 5844 5844 5846 5847 5848 5850 5851 5851 5851 5851 5851 5852 5852 5851 5851 5850 5850 5851 5852 5852 5853 5855 5856 5856 5857 5857 5857 5857 5858 5859 5859 5860 5861 5861 5861 5861 5861 5862 5862 5862 5862 5862 5862 5863 5863 5863 5863 5864 5864 5865 5867 5869 5870 5871 5871 5873 5875 5876 5876 5877 5878 5879 5880 5881 5883 5884 5886 5886 5886 5885 5887 5889 5890 5891 5892 5893 5895 5896 5897 5898 5899 5900 5902 5903 5905
5840 5841 5842 5843 5844 5845 5847 5848 5848 5848 5848 5848 5849 5849 5849 5849 5848 5848 5848 5849 5849 5850 5851 5852 5853 5853 5853 5854 5854 5855 5856 5857 5857 5858 5858 5858 5858 5859 5859 5859 5860 5859 5859 5859 5860 5861 5861 5861 5862 5863 5863 5864 5865 5867 5868 5869 5871 5873 5873 5874 5875 5876 5876 5877 5878 5879 5881 5882 5882 5883 5884 5886 5888 5888 5889 5889 5890 5891 5892 5893 5894 5896 5897 5898 5900 5901
5836 5838 5838 5839 5840 5842 5844 5845 5844 5843 5844 5845 5846 5846 5847 5846 5845 5845 5846 5846 5846 5847 5848 5850 5850 5849 5849 5850 5851 5851 5852 5853 5854 5854 5854 5855 5855 5855 5855 5856 5856 5856 5856 5856 5856 5857 5858 5859 5860 5861 5861 5861 5862 5863 5864 5866 5868 5870 5871 5872 5872 5873 5874 5874 5875 5876 5876 5877 5879 5880 5882 5884 5885 5886 5886 5887 5888 5888 5889 5890 5891 5893 5894 5895 5897 5898
5834 5835 5836 5836 5837 5840 5841 5841 5840 5841 5841 5843 5843 5843 5844 5843 5842 5841 5842 5843 5844 5845 5846 5847 5847 5846 5846 5846 5847 5847 5848 5849 5849 5850 5851 5851 5851 5852 5852 5852 5853 5853 5853 5853 5853 5854 5855 5856 5857 5858 5859 5859 5859 5859 5860 5862 5864 5867 5869 5870 5870 5870 5871 5872 5872 5873 5873 5874 5875 5877 5878 5880 5882 5882 5883 5884 5884 5885 5885 5886 5888 5889 5891 5892 5894 5895
5830 5833 5834 5834 5835 5837 5837 5837 5838 5838 5840 5841 5841 5840 5841 5841 5839 5838 5839 5840 5842 5844 5844 5844 5843 5843 5843 5843 5844 5844 5845 5845 5846 5847 5848 5848 5849 5849 5849 5849 5849 5849 5849 5849 5850 5850 5852 5853 5854 5855 5856 5856 5857 5857 5857 5857 5859 5862 5865 5866 5867 5867 5868 5869 5869 5870 5871 5872 5873 5874 5875 5876 5877 5878 5879 5879 5880 5881 5882 5883 5884 5885 5887 5889 5890 5892
5826 5828 5831 5833 5834 5834 5834 5834 5835 5836 5837 5838 5837 5837 5837 5838 5837 5837 5837 5837 5839 5841 5841 5841 5840 5840 5840 5840 5841 5841 5842 5842 5843 5844 5845 5845 5846 5846 5846 5846 5845 5845 5845 5845 5846 5847 5848 5849 5851 5852 5852 5853 5854 5855 5855 5855 5856 5858 5861 5863 5864 5864 5865 5866 5866 5867 5868 5868 5869 5870 5872 5873 5874 5874 5875 5875 5875 5877 5878 5880 5881 5882 5883 5885 5886 5888
5822 5824 5827 5830 5832 5832 5831 5832 5833 5834 5834 5833 5833 5833 5833 5833 5834 5835 5834 5835 5836 5838 5838 5838 5838 5837 5838 5838 5838 5839 5839 5840 5840 5841 5842 5842 5843 5843 5843 5843 5843 5842 5841 5841 5842 5843 5844 5845 5847 5848 5849 5850 5851 5852 5853 5853 5854 5855 5857 5859 5860 5861 5861 5862 5863 5863 5864 5864 5865 5866 5868 5869 5870 5871 5871 5871 5871 5873 5875 5877 5878 5879 5879 5881 5882 5883
5820 5821 5823 5826 5828 5828 5828 5829 5830 5830 5830 5830 5830 5830 5830 5831 5832 5832 5833 5834 5835 5835 5835 5835 5835 5835 5835 5835 5836 5837 5837 5838 5838 5838 5839 5839 5840 5840 5840 5840 5840 5839 5838 5838 5838 5839 5840 5841 5842 5844 5845 5846 5848 5850 5851 5851 5852 5853 5854 5855 5857 5858 5858 5859 5859 5860 5860 5860 5860 5861 5863 5864 5865 5867 5867 5868 5868 5870 5872 5873 5874 5876 5876 5876 5877 5878
5819 5820 5820 5822 5824 5824 5825 5826 5826 5827 5827 5828 5828 5827 5828 5829 5830 5831 5832 5833 5833 5833 5833 5833 5833 5832 5832 5833 5833 5834 5834 5835 5835 5835 5835 5836 5836 5837 5837 5838 5838 5837 5836 5835 5835 5835 5836 5837 5838 5839 5841 5843 5844 5846 5847 5848 5849 5850 5851 5852 5853 5855 5856 5856 5857 5857 5857 5857 5857 5858 5859 5860 5861 5862 5863 5864 5866 5867 5869 5870 5871 5872 5872 5872 5873 5873
5816 5817 5818 5819 5820 5821 5822 5823 5824 5825 5825 5825 5825 5825 5825 5826 5827 5828 5830 5831 5831 5830 5830 5830 5830 5830 5831 5831 5831 5832 5832 5832 5832 5832 5833 5833 5833 5834 5834 5835 5835 5834 5833 5832 5832 5832 5832 5833 5834 5835 5837 5838 5840 5842 5843 5845 5846 5847 5848 5849 5850 5851 5853 5854 5854 5855 5855 5855 5855 5855 5856 5857 5857 5858 5859 5861 5863 5865 5866 5866 5867 5867 5868 5868 5869 5869
5813 5814 5815 5816 5817 5817 5819 5820 5821 5822 5822 5822 5822 5822 5822 5824 5826 5826 5827 5828 5828 5827 5827 5828 5828 5828 5829 5829 5829 5829 5829 5829 5830 5830 5830 5830 5830 5831 5831 5831 5831 5831 5831 5830 5829 5829 5829 5830 5831 5832 5833 5835 5836 5838 5839 5841 5842 5843 5845 5846 5847 5848 5849 5850 5851 5851 5852 5852 5852 5852 5853 5853 5854 5854 5855 5856 5859 5860 5861 5862 5862 5863 5864 5864 5865 5865
5811 5811 5811 5813 5814 5814 5815 5817 5818 5819 5818 5819 5819 5819 5821 5822 5823 5824 5825 5825 5825 5825 5825 5826 5826 5826 5826 5826 5827 5827 5827 5827 5827 5827 5827 5827 5827 5828 5828 5828 5828 5828 5827 5827 5826 5826 5827 5827 5828 5829 5830 5831 5832 5833 5835 5836 5838 5840 5842 5843 5843 5844 5845 5846 5847 5848 5849 5849 5849 5849 5850 5850 5851 5851 5851 5852 5854 5855 5856 5857 5858 5859 5860 5860 5861 5861
5809 5809 5809 5810 5811 5811 5812 5813 5814 5814 5815 5816 5816 5817 5819 5819 5820 5821 5822 5823 5823 5823 5824 5824 5824 5824 5824 5824 5824 5824 5824 5824 5825 5825 5824 5824 5824 5825 5825 5825 5825 5824 5824 5823 5823 5823 5824 5824 5825 5826 5827 5828 5828 5829 5830 5832 5834 5836 5838 5840 5840 5840 5841 5843 5844 5845 5846 5846 5846 5847 5847 5848 5848 5849 5850 5850 5851 5852 5853 5854 5855 5855 5856 5856 5856 5857
5806 5806 5807 5807 5808 5808 5809 5810 5810 5810 5812 5813 5813 5814 5815 5815 5815 5817 5820 5820 5821 5821 5821 5822 5822 5822 5822 5822 5822 5822 5822 5822 5823 5823 5822 5821 5822 5822 5822 5822 5821 5821 5820 5820 5820 5820 5821 5821 5822 5823 5823 5825 5826 5826 5827 5828 5829 5832 5835 5836 5837 5837 5838 5840 5842 5842 5843 5844 5844 5844 5844 5845 5846 5847 5848 5848 5849 5849 5850 5851 5851 5851 5851 5852 5852 5853
5803 5804 5804 5804 5805 5805 5806 5807 5807 5808 5809 5811 5811 5811 5812 5812 5813 5814 5817 5818 5818 5818 5818 5819 5819 5820 5820 5820 5820 5820 5820 5820 5820 5820 5820 5819 5819 5819 5819 5819 5819 5818 5818 5817 5817 5817 5817 5818 5819 5820 5821 5822 5823 5824 5825 5823 5823 5827 5830 5832 5833 5834 5836 5838 5839 5840 5841 5841 5841 5842 5842 5843 5844 5844 5845 5846 5846 5847 5847 5847 5848 5848 5848 5849 5849 5850
5800 5801 5802 5802 5802 5803 5803 5804 5805 5806 5807 5809 5809 5809 5809 5810 5811 5813 5815 5816 5815 5815 5815 5816 5816 5817 5817 5817 5818 5818 5818 5818 5818 5817 5817 5817 5817 5817 5817 5817 5817 5816 5815 5815 5814 5814 5814 5815 5816 5817 5818 5819 5820 5822 5823 5821 5820 5823 5826 5828 5830 5832 5833 5835 5837 5838 5838 5838 5838 5839 5840 5841 5842 5842 5843 5843 5844 5844 5844 5844 5845 5845 5845 5846 5846 5847
5797 5798 5798 5798 5799 5800 5801 5801 5802 5804 5806 5807 5807 5807 5807 5808 5809 5811 5813 5813 5812 5812 5812 5813 5813 5814 5814 5814 5815 5815 5815 5815 5815 5815 5815 5814 5814 5814 5814 5814 5814 5813 5813 5812 5812 5812 5812 5812 5813 5814 5815 5816 5817 5819 5820 5820 5820 5821 5823 5825 5827 5829 5830 5832 5833 5834 5835 5835 5836 5837 5837 5838 5839 5840 5840 5841 5841 5841 5841 5842 5842 5842 5843 5843 5844 5844
5793 5795 5795 5795 5796 5798 5798 5798 5799 5802 5804 5804 5804 5804 5805 5806 5808 5810 5810 5810 5809 5809 5809 5810 5811 5811 5811 5812 5812 5812 5813 5813 5813 5812 5812 5812 5812 5812 5812 5812 5811 5811 5810 5810 5810 5809 5809 5810 5810 5811 5812 5813 5814 5816 5817 5818 5818 5818 5819 5821 5823 5825 5827 5828 5829 5831 5832 5833 5834 5835 5835 5836 5836 5837 5838 5838 5838 5838 5839 5839 5840 5840 5841 5841 5841 5841
5789 5791 5792 5792 5793 5795 5796 5796 5797 5799 5801 5802 5802 5801 5802 5804 5806 5807 5807 5807 5807 5807 5807 5808 5808 5809 5809 5809 5810 5810 5810 5810 5810 5810 5810 5810 5810 5809 5810 5810 5809 5808 5808 5807 5807 5807 5807 5808 5808 5809 5809 5811 5812 5813 5814 5815 5816 5816 5817 5819 5821 5823 5824 5826 5827 5828 5830 5831 5832 5833 5833 5833 5833 5834 5834 5835 5835 5835 5836 5836 5837 5837 5838 5838 5839 5839
5785 5787 5788 5788 5790 5792 5793 5793 5793 5795 5798 5799 5799 5799 5800 5802 5803 5804 5804 5805 5805 5805 5805 5806 5806 5806 5806 5807 5807 5807 5808 5808 5807 5807 5808 5808 5807 5807 5807 5807 5807 5806 5806 5805 5805 5805 5805 5805 5806 5806 5807 5808 5809 5810 5811 5812 5814 5815 5817 5818 5819 5821 5822 5823 5824 5826 5827 5828 5829 5830 5830 5830 5830 5830 5831 5831 5831 5832 5832 5833 5833 5834 5835 5835 5836 5836
5781 5783 5785 5785 5787 5789 5790 5789 5790 5792 5795 5796 5797 5797 5798 5799 5800 5800 5801 5802 5802 5802 5803 5803 5804 5804 5804 5804 5805 5805 5805 5805 5805 5805 5805 5805 5805 5805 5805 5805 5805 5804 5804 5804 5804 5803 5803 5803 5804 5804 5804 5805 5806 5807 5809 5810 5811 5813 5814 5815 5817 5818 5820 5821 5822 5823 5825 5826 5827 5827 5827 5827 5827 5826 5827 5827 5828 5828 5829 5829 5830 5831 5831 5832 5832 5833
5778 5780 5781 5782 5784 5786 5786 5786 5787 5789 5792 5793 5793 5795 5796 5796 5797 5797 5798 5798 5799 5799 5800 5800 5800 5801 5802 5802 5802 5802 5802 5802 5802 5803 5803 5803 5802 5802 5803 5803 5803 5802 5803 5802 5802 5802 5802 5802 5802 5802 5803 5803 5804 5805 5807 5808 5809 5811 5811 5812 5814 5816 5817 5818 5819 5820 5821 5822 5823 5823 5824 5824 5823 5823 5823 5824 5824 5825 5826 5826 5827 5828 5828 5829 5829 5830
5776 5777 5778 5780 5782 5783 5784 5784 5785 5787 5789 5790 5790 5791 5792 5793 5793 5794 5795 5795 5796 5797 5797 5797 5797 5798 5799 5799 5799 5800 5800 5800 5800 5800 5800 5800 5800 5800 5801 5801 5801 5801 5801 5801 5801 5801 5801 5801 5801 5801 5801 5802 5802 5803 5805 5806 5807 5808 5809 5810 5812 5813 5814 5816 5817 5818 5818 5819 5819 5820 5820 5820 5821 5821 5820 5821 5821 5822 5823 5823 5824 5825 5825 5826 5826 5827